GW2898 Weather Reports


Display with metric or nautical units.
time (UTC)temp
F
wind
direction
speed
MPH
gust
MPH
rain 1hr
in
rain 24hr
in
rain mn
in
humidity
%
barometer
mb
20260507120426 58 37 0.0 2.0 0.00 0.00 0.00 56 1015.7
20260507115922 59 96 2.0 3.0 0.00 0.00 0.00 54 1015.8
20260507115418 59 81 2.0 3.0 0.00 0.00 0.00 54 1016.2
20260507114914 59 80 2.0 3.0 0.00 0.00 0.00 53 1015.8
20260507114411 59 85 2.0 3.0 0.00 0.00 0.00 52 1015.8
20260507113908 57 98 1.0 3.0 0.00 0.00 0.00 56 1016.0
20260507113406 58 88 1.0 2.0 0.00 0.00 0.00 53 1015.7
20260507112903 59 110 2.0 3.0 0.00 0.00 0.00 54 1015.8
20260507112400 58 93 1.0 2.0 0.00 0.00 0.00 55 1016.1
20260507111857 58 106 0.0 2.0 0.00 0.00 0.00 55 1016.2
20260507111354 59 61 2.0 2.0 0.00 0.00 0.00 54 1015.8
20260507110850 59 101 1.0 2.0 0.00 0.00 0.00 52 1015.8
20260507110346 60 163 0.0 2.0 0.00 0.00 0.00 51 1015.8
20260507105844 60 57 0.0 2.0 0.00 0.00 0.00 49 1016.1
20260507105340 60 95 2.0 3.0 0.00 0.00 0.00 49 1015.8
20260507104837 61 52 2.0 2.0 0.00 0.00 0.00 49 1015.8
20260507104334 61 19 2.0 3.0 0.00 0.00 0.00 47 1016.0
20260507103829 60 48 1.0 2.0 0.00 0.00 0.00 48 1016.0
20260507103326 60 86 2.0 3.0 0.00 0.00 0.00 49 1016.2
20260507102822 59 95 2.0 3.0 0.00 0.00 0.00 50 1016.2
20260507102319 60 111 0.0 2.0 0.00 0.00 0.00 50 1016.1
20260507101816 60 6 0.0 1.0 0.00 0.00 0.00 48 1016.3
20260507101315 61 76 1.0 2.0 0.00 0.00 0.00 47 1016.5
20260507100813 61 32 1.0 2.0 0.00 0.00 0.00 46 1016.3
20260507100311 62 100 0.0 2.0 0.00 0.00 0.00 46 1016.3
20260507095809 63 38 1.0 3.0 0.00 0.00 0.00 44 1016.6
20260507095306 62 27 1.0 2.0 0.00 0.00 0.00 44 1016.4
20260507094802 62 35 0.0 3.0 0.00 0.00 0.00 46 1016.4
20260507094259 62 124 0.0 2.0 0.00 0.00 0.00 46 1016.6
20260507093756 62 33 1.0 2.0 0.00 0.00 0.00 45 1016.4
20260507093254 62 34 2.0 3.0 0.00 0.00 0.00 44 1016.5
20260507092752 62 49 1.0 2.0 0.00 0.00 0.00 43 1016.5
20260507092247 63 52 1.0 2.0 0.00 0.00 0.00 43 1016.5
20260507091744 64 129 0.0 2.0 0.00 0.00 0.00 42 1016.5
20260507091241 64 98 2.0 3.0 0.00 0.00 0.00 40 1016.4
20260507090736 64 50 1.0 2.0 0.00 0.00 0.00 40 1016.5
20260507090233 64 61 2.0 3.0 0.00 0.00 0.00 39 1016.5
20260507085730 64 34 0.0 2.0 0.00 0.00 0.00 40 1016.6
20260507085227 65 102 0.0 1.0 0.00 0.00 0.00 40 1016.6
20260507084724 67 79 1.0 3.0 0.00 0.00 0.00 37 1016.6
20260507084220 67 95 2.0 2.0 0.00 0.00 0.00 37 1016.5
20260507083718 66 71 1.0 3.0 0.00 0.00 0.00 36 1016.5
20260507083214 66 33 1.0 2.0 0.00 0.00 0.00 37 1016.5
20260507082710 67 41 0.0 3.0 0.00 0.00 0.00 37 1016.7
20260507082206 67 33 1.0 4.0 0.00 0.00 0.00 36 1016.7
20260507081703 64 82 2.0 3.0 0.00 0.00 0.00 40 1016.6
20260507081159 63 66 1.0 2.0 0.00 0.00 0.00 45 1016.9
20260507080656 63 62 1.0 2.0 0.00 0.00 0.00 44 1016.8
20260507080153 62 87 2.0 2.0 0.00 0.00 0.00 47 1016.7
20260507075648 63 94 1.0 2.0 0.00 0.00 0.00 44 1016.7
20260507075144 63 89 0.0 3.0 0.00 0.00 0.00 44 1016.9
20260507074641 64 50 0.0 2.0 0.00 0.00 0.00 42 1017.0
20260507074139 64 61 1.0 3.0 0.00 0.00 0.00 42 1016.8
20260507073635 64 89 1.0 3.0 0.00 0.00 0.00 43 1016.7
20260507073131 64 73 2.0 2.0 0.00 0.00 0.00 42 1016.9
20260507072630 63 66 0.0 2.0 0.00 0.00 0.00 41 1017.0
20260507072127 64 140 0.0 2.0 0.00 0.00 0.00 39 1016.7
20260507071624 65 122 0.0 2.0 0.00 0.00 0.00 38 1016.8
20260507071120 65 104 1.0 3.0 0.00 0.00 0.00 40 1016.7
20260507070617 65 48 1.0 2.0 0.00 0.00 0.00 37 1016.8
20260507070114 66 49 0.0 1.0 0.00 0.00 0.00 36 1016.8
20260507065611 66 157 1.0 2.0 0.00 0.00 0.00 36 1016.8
20260507065108 67 95 1.0 2.0 0.00 0.00 0.00 35 1016.7
20260507064605 68 77 2.0 3.0 0.00 0.00 0.00 35 1016.7
20260507064104 66 131 0.0 2.0 0.00 0.00 0.00 41 1016.6
20260507063601 66 26 2.0 3.0 0.00 0.00 0.00 42 1016.9
20260507063058 66 23 0.0 2.0 0.00 0.00 0.00 42 1016.6
20260507062554 66 30 0.0 2.0 0.00 0.00 0.00 42 1016.8
20260507062052 66 50 0.0 2.0 0.00 0.00 0.00 42 1016.7
20260507061550 66 87 0.0 2.0 0.00 0.00 0.00 42 1016.7
20260507061048 66 84 1.0 2.0 0.00 0.00 0.00 44 1016.7
20260507060545 65 60 0.0 2.0 0.00 0.00 0.00 43 1016.9
20260507060042 66 67 1.0 2.0 0.00 0.00 0.00 42 1016.8
20260507055542 66 50 1.0 2.0 0.00 0.00 0.00 42 1016.7
20260507055039 66 40 0.0 2.0 0.00 0.00 0.00 43 1016.8
20260507054535 66 111 0.0 2.0 0.00 0.00 0.00 42 1016.7
20260507054032 66 34 0.0 2.0 0.00 0.00 0.00 42 1016.8
20260507053530 66 40 1.0 2.0 0.00 0.00 0.00 42 1017.1
20260507053029 66 129 0.0 1.0 0.00 0.00 0.00 40 1016.9
20260507052526 66 129 0.0 2.0 0.00 0.00 0.00 40 1016.7
20260507052022 67 89 1.0 2.0 0.00 0.00 0.00 39 1017.0
20260507051520 66 61 0.0 1.0 0.00 0.00 0.00 40 1016.9
20260507051017 66 53 0.0 2.0 0.00 0.00 0.00 40 1016.7
20260507050513 67 32 0.0 2.0 0.00 0.00 0.00 40 1016.8
20260507050010 67 48 0.0 2.0 0.00 0.00 0.00 39 1016.6
20260507045507 68 98 0.0 2.0 0.00 0.00 0.00 38 1016.6
20260507045004 68 37 1.0 2.0 0.00 0.00 0.00 38 1016.8
20260507044501 68 55 0.0 2.0 0.00 0.00 0.00 37 1016.8
20260507043957 68 27 1.0 2.0 0.00 0.00 0.00 37 1016.5
20260507043453 68 113 0.0 2.0 0.00 0.00 0.00 37 1016.6
20260507042949 68 49 1.0 2.0 0.00 0.00 0.00 38 1016.6
20260507042446 68 157 0.0 1.0 0.00 0.00 0.00 37 1016.6
20260507041942 69 113 0.0 0.0 0.00 0.00 0.00 36 1016.4
20260507041439 69 89 0.0 1.0 0.00 0.00 0.00 36 1016.3
20260507040936 69 54 1.0 2.0 0.00 0.00 0.00 37 1016.3
20260507040432 69 23 0.0 2.0 0.00 0.00 0.00 37 1016.2
20260507035928 69 32 0.0 1.0 0.00 0.00 0.00 35 1016.3
20260507035425 69 130 0.0 2.0 0.00 0.00 0.00 35 1016.3
20260507034922 70 147 0.0 1.0 0.00 0.00 0.00 34 1016.0
20260507034419 70 37 0.0 1.0 0.00 0.00 0.00 34 1016.2
20260507033917 71 47 1.0 1.0 0.00 0.00 0.00 33 1016.0
20260507033414 71 57 0.0 2.0 0.00 0.00 0.00 32 1016.0
20260507032911 71 44 0.0 2.0 0.00 0.00 0.00 32 1015.8
20260507032408 71 142 0.0 1.0 0.00 0.00 0.00 33 1015.8
20260507031904 71 129 0.0 1.0 0.00 0.00 0.00 33 1016.2
20260507031401 72 186 0.0 0.0 0.00 0.00 0.00 31 1016.0
20260507030857 72 147 0.0 0.0 0.00 0.00 0.00 31 1015.5
20260507030355 72 147 0.0 0.0 0.00 0.00 0.00 30 1015.4
20260507025851 73 37 0.0 1.0 0.00 0.00 0.00 28 1015.6
20260507025349 75 44 0.0 1.0 0.00 0.00 0.00 28 1015.4
20260507024847 76 78 0.0 1.0 0.00 0.00 0.00 26 1015.3
20260507024344 76 130 0.0 1.0 0.00 0.00 0.00 25 1015.5
20260507023839 78 37 0.0 1.0 0.00 0.00 0.00 25 1015.2
20260507023337 78 15 0.0 2.0 0.00 0.00 0.00 24 1015.4
20260507022834 79 343 1.0 3.0 0.00 0.00 0.00 23 1015.1
20260507022330 79 355 1.0 2.0 0.00 0.00 0.00 24 1015.3
20260507021826 79 331 3.0 6.0 0.00 0.00 0.00 23 1015.2
20260507021322 78 358 0.0 2.0 0.00 0.00 0.00 24 1015.2
20260507020820 79 195 2.0 3.0 0.00 0.00 0.00 24 1014.9
20260507020316 79 185 2.0 3.0 0.00 0.00 0.00 22 1015.0
20260507015813 79 89 0.0 1.0 0.00 0.00 0.00 23 1015.0
20260507015311 80 160 0.0 1.0 0.00 0.00 0.00 23 1014.9
20260507014807 80 37 0.0 2.0 0.00 0.00 0.00 23 1014.8
20260507014304 80 225 4.0 6.0 0.00 0.00 0.00 21 1015.0
20260507013800 81 275 2.0 7.0 0.00 0.00 0.00 21 1014.9
20260507013258 81 249 3.0 4.0 0.00 0.00 0.00 21 1014.8
20260507012755 81 235 2.0 4.0 0.00 0.00 0.00 22 1015.0
20260507012250 81 181 1.0 4.0 0.00 0.00 0.00 22 1014.9
20260507011748 81 217 0.0 3.0 0.00 0.00 0.00 21 1015.1
20260507011244 82 168 0.0 4.0 0.00 0.00 0.00 20 1015.1
20260507010744 82 284 0.0 3.0 0.00 0.00 0.00 20 1014.8
20260507010240 83 189 2.0 5.0 0.00 0.00 0.00 21 1015.1
20260507005738 84 200 1.0 6.0 0.00 0.00 0.00 21 1014.7
20260507005234 84 203 1.0 3.0 0.00 0.00 0.00 19 1014.6
20260507004731 84 83 3.0 4.0 0.00 0.00 0.00 19 1014.8
20260507004229 85 237 2.0 3.0 0.00 0.00 0.00 19 1014.9
20260507003724 83 238 1.0 4.0 0.00 0.00 0.00 20 1014.8
20260507003220 84 326 4.0 8.0 0.00 0.00 0.00 20 1015.2
20260507002716 85 246 1.0 3.0 0.00 0.00 0.00 21 1014.8
20260507002212 84 307 1.0 4.0 0.00 0.00 0.00 19 1014.9
20260507001709 84 336 2.0 5.0 0.00 0.00 0.00 20 1014.7
20260507001206 84 352 3.0 7.0 0.00 0.00 0.00 20 1014.7
20260507000702 84 338 4.0 5.0 0.00 0.00 0.00 20 1015.0
20260507000158 84 2 2.0 8.0 0.00 0.00 0.00 20 1014.9
20260506235656 85 319 5.0 6.0 0.00 0.00 0.00 20 1014.9
20260506235151 83 339 2.0 7.0 0.00 0.00 0.00 21 1015.0
20260506234648 84 121 3.0 5.0 0.00 0.00 0.00 22 1014.8
20260506234145 85 212 0.0 4.0 0.00 0.00 0.00 20 1014.9
20260506233642 84 246 0.0 3.0 0.00 0.00 0.00 20 1014.9
20260506233139 83 184 0.0 5.0 0.00 0.00 0.00 24 1015.1
20260506232635 82 74 4.0 8.0 0.00 0.00 0.00 20 1014.9
20260506232131 83 225 3.0 7.0 0.00 0.00 0.00 23 1015.3
20260506231628 84 0 3.0 6.0 0.00 0.00 0.00 20 1015.3
20260506231126 84 214 0.0 6.0 0.00 0.00 0.00 20 1015.2
20260506230623 83 346 2.0 5.0 0.00 0.00 0.00 21 1015.3
20260506230120 84 327 6.0 8.0 0.00 0.00 0.00 21 1015.4
20260506225616 84 304 7.0 8.0 0.00 0.00 0.00 20 1015.4
20260506225113 84 354 3.0 6.0 0.00 0.00 0.00 22 1015.4
20260506224610 83 248 2.0 12.0 0.00 0.00 0.00 21 1015.5
20260506224107 84 332 2.0 7.0 0.00 0.00 0.00 20 1015.6
20260506223603 85 206 1.0 5.0 0.00 0.00 0.00 22 1015.6
20260506223059 84 284 1.0 5.0 0.00 0.00 0.00 21 1015.5
20260506222556 83 278 1.0 5.0 0.00 0.00 0.00 24 1015.8
20260506222052 82 252 6.0 9.0 0.00 0.00 0.00 21 1015.8
20260506221550 82 263 3.0 6.0 0.00 0.00 0.00 21 1015.7
20260506221048 82 0 2.0 3.0 0.00 0.00 0.00 22 1015.8
20260506220543 81 22 3.0 8.0 0.00 0.00 0.00 21 1016.1
20260506220039 83 3 3.0 7.0 0.00 0.00 0.00 21 1016.0
20260506215536 83 302 2.0 3.0 0.00 0.00 0.00 22 1016.2
20260506215032 82 330 6.0 9.0 0.00 0.00 0.00 21 1016.2
20260506214529 83 315 5.0 14.0 0.00 0.00 0.00 22 1016.2
20260506214026 81 291 3.0 7.0 0.00 0.00 0.00 21 1016.6
20260506213524 82 330 2.0 5.0 0.00 0.00 0.00 21 1016.7
20260506213021 82 88 3.0 8.0 0.00 0.00 0.00 22 1016.4
20260506212518 82 76 5.0 9.0 0.00 0.00 0.00 21 1016.6
20260506212013 82 56 3.0 5.0 0.00 0.00 0.00 23 1016.8
20260506211509 81 332 3.0 6.0 0.00 0.00 0.00 22 1016.9
20260506211006 82 320 4.0 8.0 0.00 0.00 0.00 23 1016.8
20260506210502 82 271 5.0 9.0 0.00 0.00 0.00 22 1016.9
20260506205959 81 355 3.0 8.0 0.00 0.00 0.00 23 1017.1
20260506205455 81 0 3.0 9.0 0.00 0.00 0.00 23 1017.1
20260506204951 82 324 5.0 7.0 0.00 0.00 0.00 22 1017.0
20260506204449 82 320 9.0 11.0 0.00 0.00 0.00 22 1017.2
20260506203947 81 188 2.0 5.0 0.00 0.00 0.00 22 1017.1
20260506203443 81 301 4.0 8.0 0.00 0.00 0.00 22 1017.1
20260506202940 81 259 1.0 4.0 0.00 0.00 0.00 24 1017.1
20260506202438 79 340 5.0 8.0 0.00 0.00 0.00 24 1017.2
20260506201934 80 313 4.0 7.0 0.00 0.00 0.00 22 1017.5
20260506201432 81 337 5.0 7.0 0.00 0.00 0.00 26 1017.4
20260506200928 80 313 6.0 8.0 0.00 0.00 0.00 23 1017.5
20260506200425 80 255 2.0 3.0 0.00 0.00 0.00 23 1017.5
20260506195921 80 231 1.0 3.0 0.00 0.00 0.00 27 1017.6
20260506195418 79 70 0.0 3.0 0.00 0.00 0.00 24 1017.5
20260506194915 79 130 2.0 6.0 0.00 0.00 0.00 26 1017.7
20260506194412 78 228 1.0 6.0 0.00 0.00 0.00 23 1017.9
20260506193909 79 5 5.0 9.0 0.00 0.00 0.00 24 1017.7
20260506193406 79 218 2.0 4.0 0.00 0.00 0.00 26 1017.9
20260506192902 78 113 4.0 5.0 0.00 0.00 0.00 26 1017.8
20260506192359 78 333 5.0 11.0 0.00 0.00 0.00 25 1018.0
20260506191856 79 340 2.0 7.0 0.00 0.00 0.00 26 1017.8
20260506191352 78 40 1.0 4.0 0.00 0.00 0.00 24 1017.9
20260506190849 78 86 3.0 6.0 0.00 0.00 0.00 24 1018.1
20260506190345 79 11 5.0 7.0 0.00 0.00 0.00 24 1018.2
20260506185843 77 62 1.0 4.0 0.00 0.00 0.00 28 1018.3
20260506185340 77 331 2.0 8.0 0.00 0.00 0.00 25 1018.3
20260506184836 77 346 4.0 8.0 0.00 0.00 0.00 26 1018.3
20260506184334 77 343 4.0 8.0 0.00 0.00 0.00 26 1018.2
20260506183831 77 317 0.0 7.0 0.00 0.00 0.00 25 1018.3
20260506183326 78 204 0.0 7.0 0.00 0.00 0.00 26 1018.7
20260506182824 77 71 0.0 7.0 0.00 0.00 0.00 27 1018.9
20260506182321 77 253 3.0 7.0 0.00 0.00 0.00 28 1018.6
20260506181819 77 337 0.0 5.0 0.00 0.00 0.00 27 1018.5
20260506181316 77 142 3.0 7.0 0.00 0.00 0.00 27 1018.9
20260506180813 76 177 1.0 4.0 0.00 0.00 0.00 32 1018.9
20260506180309 76 75 3.0 4.0 0.00 0.00 0.00 28 1018.7
20260506175806 76 204 0.0 7.0 0.00 0.00 0.00 31 1018.9
20260506175306 75 218 3.0 6.0 0.00 0.00 0.00 31 1019.0
20260506174800 75 167 3.0 4.0 0.00 0.00 0.00 33 1019.1
20260506174257 75 152 2.0 3.0 0.00 0.00 0.00 31 1019.0
20260506173749 75 233 4.0 7.0 0.00 0.00 0.00 32 1019.1
20260506173246 74 20 2.0 7.0 0.00 0.00 0.00 31 1019.1
20260506172743 74 230 5.0 9.0 0.00 0.00 0.00 32 1018.9
20260506172239 75 261 4.0 6.0 0.00 0.00 0.00 32 1019.0
20260506171737 75 55 1.0 4.0 0.00 0.00 0.00 31 1019.0
20260506171234 75 238 2.0 4.0 0.00 0.00 0.00 31 1019.0
20260506170732 73 324 1.0 5.0 0.00 0.00 0.00 32 1018.7
20260506170228 74 258 4.0 6.0 0.00 0.00 0.00 31 1018.7
20260506165727 74 353 3.0 3.0 0.00 0.00 0.00 31 1018.6
20260506165223 74 109 2.0 5.0 0.00 0.00 0.00 33 1018.7
20260506164721 73 357 3.0 5.0 0.00 0.00 0.00 34 1018.9
20260506164217 73 313 2.0 3.0 0.00 0.00 0.00 33 1018.9
20260506163713 75 271 3.0 5.0 0.00 0.00 0.00 33 1018.9
20260506163208 75 335 0.0 2.0 0.00 0.00 0.00 31 1019.0
20260506162705 73 315 0.0 2.0 0.00 0.00 0.00 32 1018.9
20260506162202 71 303 3.0 5.0 0.00 0.00 0.00 34 1018.7
20260506161659 71 307 0.0 2.0 0.00 0.00 0.00 36 1018.5
20260506161155 72 161 1.0 3.0 0.00 0.00 0.00 36 1019.0
20260506160653 72 232 3.0 4.0 0.00 0.00 0.00 33 1018.7
20260506160150 72 19 2.0 4.0 0.00 0.00 0.00 33 1018.7
20260506155649 73 10 1.0 2.0 0.00 0.00 0.00 32 1018.7
20260506155145 71 87 2.0 5.0 0.00 0.00 0.00 35 1018.7
20260506153248 71 84 2.0 3.0 0.00 0.00 0.00 36 1019.0
20260506152744 72 193 0.0 3.0 0.00 0.00 0.00 35 1018.7
20260506152242 72 15 0.0 3.0 0.00 0.00 0.00 35 1018.9
20260506151741 72 67 2.0 3.0 0.00 0.00 0.00 35 1018.6
20260506151237 70 163 1.0 3.0 0.00 0.00 0.00 36 1018.9
20260506150733 70 59 0.0 4.0 0.00 0.00 0.00 37 1018.7
20260506150231 69 145 0.0 3.0 0.00 0.00 0.00 37 1018.7
20260506145728 69 64 1.0 3.0 0.00 0.00 0.00 37 1018.5
20260506145224 66 230 0.0 3.0 0.00 0.00 0.00 39 1018.5
20260506144721 67 269 0.0 1.0 0.00 0.00 0.00 39 1018.6
20260506144219 67 124 2.0 5.0 0.00 0.00 0.00 39 1018.5
20260506143716 68 104 1.0 3.0 0.00 0.00 0.00 37 1018.9
20260506143214 65 126 1.0 3.0 0.00 0.00 0.00 40 1018.7
20260506142712 66 187 2.0 3.0 0.00 0.00 0.00 39 1018.4
20260506142209 66 204 0.0 3.0 0.00 0.00 0.00 41 1018.4
20260506141707 64 110 0.0 2.0 0.00 0.00 0.00 41 1018.3
20260506141205 63 158 3.0 4.0 0.00 0.00 0.00 42 1018.4
20260506140703 63 114 1.0 3.0 0.00 0.00 0.00 45 1018.2
20260506140200 62 175 2.0 4.0 0.00 0.00 0.00 45 1018.1
20260506135657 63 167 2.0 7.0 0.00 0.00 0.00 44 1018.1
20260506135153 63 152 2.0 4.0 0.00 0.00 0.00 44 1017.9
20260506134650 62 122 0.0 3.0 0.00 0.00 0.00 46 1018.0
20260506134146 63 169 0.0 3.0 0.00 0.00 0.00 47 1017.8
20260506133643 62 148 0.0 3.0 0.00 0.00 0.00 49 1018.0
20260506133139 61 127 1.0 2.0 0.00 0.00 0.00 50 1018.0
20260506132637 60 129 2.0 4.0 0.00 0.00 0.00 52 1017.9
20260506132133 59 12 2.0 2.0 0.00 0.00 0.00 57 1017.8
20260506131631 58 92 2.0 3.0 0.00 0.00 0.00 58 1017.7
20260506131127 57 173 0.0 4.0 0.00 0.00 0.00 59 1017.7
20260506130624 57 48 0.0 3.0 0.00 0.00 0.00 59 1017.6
20260506130122 55 92 1.0 2.0 0.00 0.00 0.00 62 1017.9
20260506125620 54 83 2.0 3.0 0.00 0.00 0.00 66 1017.6
20260506125117 53 147 0.0 2.0 0.00 0.00 0.00 67 1017.4
20260506124615 53 112 0.0 2.0 0.00 0.00 0.00 67 1017.4
20260506124113 53 96 2.0 3.0 0.00 0.00 0.00 68 1017.6
20260506123610 53 107 2.0 3.0 0.00 0.00 0.00 67 1017.1
20260506123108 53 67 0.0 2.0 0.00 0.00 0.00 66 1017.2
20260506122604 53 67 2.0 3.0 0.00 0.00 0.00 65 1017.3
20260506122103 53 62 2.0 4.0 0.00 0.00 0.00 65 1017.0
20260506121600 53 52 1.0 3.0 0.00 0.00 0.00 66 1017.2
20260506121056 53 37 1.0 2.0 0.00 0.00 0.00 66 1017.1